[[{"header":{"parameterUnit":"m.s-1","parameterCategory":1,"la1":30.2991,"la2":30.254,"lo1":-89.0895,"lo2":-89.0444,"dy":0.0017,"dx":0.0017,"nx":28,"ny":28,"refTime":"2025-08-20T03:00:00:Z","depth":0,"parameterNumber":2,"parameterNumberName":"U-component_of_WINDS"},"data":[0,0,0,0,0,0,0,0,0,0,0,0,0,0,0,0,0,0,0,0,0,0,0,0,0,0,0,0,0,0,0,0,0,0,0,0,0,0,0,0,0,0,0,0,0,0,0,0,0,0,0,0,0,0,0,0,0,0,-0.7521,-0.752,0,-0.7414,-0.7413,-0.7412,-0.7355,-0.7355,-0.7355,-0.7355,-0.7244,-0.7241,-0.7238,0,0,0,0,0,0,0,0,0,0,0,0,0,-0.7677,-0.7675,-0.7521,-0.752,-0.7518,-0.7414,-0.7413,-0.7411,-0.7356,-0.7355,-0.7355,-0.7355,-0.7245,-0.7242,-0.7238,0,0,0,0,0,0,0,0,0,0,0,0,0,-0.7594,-0.7674,-0.7521,-0.7478,-0.7473,-0.7414,-0.7413,-0.7411,-0.7356,-0.7355,-0.7355,-0.7355,-0.7246,-0.7242,-0.7238,-0.7213,0,0,-0.7224,-0.7223,0,0,0,0,0,0,0,0,-0.7599,-0.7588,-0.7486,-0.7481,-0.7475,-0.7398,-0.7427,-0.7345,-0.7356,-0.74,-0.7355,-0.7355,-0.7295,-0.7287,-0.7267,-0.7208,-0.7203,-0.7224,-0.7221,-0.722,-0.7218,0,0,0,0,0,0,0,-0.7604,-0.7592,-0.7479,-0.7484,-0.7478,-0.7464,-0.7452,-0.7411,-0.735,-0.7396,-0.7392,-0.738,-0.7292,-0.7271,-0.7264,-0.7202,-0.7224,-0.722,-0.7218,-0.7216,-0.7119,-0.7119,0,0,0,0,0,0,-0.7617,-0.7598,-0.7482,-0.7475,-0.7538,-0.7461,-0.7448,-0.7423,-0.735,-0.7339,-0.738,-0.7378,-0.7279,-0.7269,-0.726,-0.7228,-0.722,-0.7216,-0.7213,-0.7119,-0.7119,-0.7119,0,0,0,0,0,0,-0.7621,-0.7607,-0.7486,-0.7535,-0.7519,-0.7459,-0.7431,-0.7421,-0.74,-0.7338,-0.7327,-0.737,-0.7278,-0.7266,-0.7226,-0.7223,-0.7214,-0.721,-0.7119,-0.7119,-0.7119,-0.7162,0,0,0,0,0,0,-0.7626,-0.7609,-0.7599,-0.7536,-0.7516,-0.7454,-0.7431,-0.7419,-0.7393,-0.7388,-0.7325,-0.7315,-0.7277,-0.7233,-0.7222,-0.7217,-0.7206,-0.7119,-0.7119,-0.7119,-0.7161,-0.7164,-0.7167,0,0,0,0,0,-0.7631,-0.7615,-0.7599,-0.7585,-0.7503,-0.7454,-0.7443,-0.7401,-0.7393,-0.7382,-0.7343,-0.7317,-0.7225,-0.7229,-0.7216,-0.721,-0.7119,-0.7119,-0.7119,-0.716,-0.7163,-0.7166,0,0,0,0,0,0,-0.7678,-0.7606,-0.7587,-0.7549,-0.7509,-0.7445,-0.743,-0.7406,-0.7366,-0.7363,-0.7312,-0.7298,-0.7263,-0.7232,-0.7238,-0.7184,-0.717,-0.7167,-0.7205,-0.7208,-0.721,-0.7219,-0.7203,0,0,0,0,0,-0.7685,-0.7652,-0.759,-0.7562,-0.7543,-0.7491,-0.7468,-0.7439,-0.7394,-0.7376,-0.7334,-0.7291,-0.7253,-0.7229,-0.719,-0.7157,-0.7143,-0.7146,-0.7149,-0.7152,-0.715,-0.7132,-0.7133,-0.712,-0.712,-0.712,0,0,-0.7697,-0.7653,-0.7635,-0.7571,-0.7536,-0.7503,-0.7476,-0.7442,-0.7417,-0.7371,-0.7331,-0.7298,-0.7247,-0.7211,-0.7193,-0.7184,-0.7151,-0.7152,-0.7154,-0.7151,-0.7132,-0.7133,-0.7134,-0.712,-0.712,-0.712,0,0,-0.7702,-0.7665,-0.7639,-0.7605,-0.7553,-0.7518,-0.7513,-0.7453,-0.743,-0.7389,-0.7354,-0.7324,-0.7259,-0.7224,-0.7198,-0.7194,-0.7168,-0.7182,-0.7197,-0.7179,-0.718,-0.7181,-0.718,-0.718,-0.7181,-0.7181,-0.7181,0,-0.7723,-0.7672,-0.7629,-0.7597,-0.757,-0.7529,-0.7502,-0.7471,-0.7409,-0.7391,-0.7383,-0.7302,-0.7264,-0.722,-0.7219,-0.7199,-0.7191,-0.7189,-0.7184,-0.7184,-0.7184,-0.7183,-0.7182,-0.7183,-0.7183,-0.7183,-0.7182,0,-0.7702,-0.7667,-0.7653,-0.7595,-0.7566,-0.7538,-0.749,-0.7467,-0.7441,-0.7408,-0.7368,-0.7322,-0.7274,-0.7261,-0.7235,-0.7214,-0.721,-0.7194,-0.7179,-0.7188,-0.7186,-0.7185,-0.7186,-0.7185,-0.7185,-0.7184,0,0,-0.7732,-0.7652,-0.7647,-0.7621,-0.7562,-0.7534,-0.7504,-0.7458,-0.744,-0.7399,-0.7373,-0.732,-0.7304,-0.7275,-0.7245,-0.723,-0.7231,-0.7215,-0.7213,-0.722,-0.7206,-0.7219,-0.7219,-0.7214,-0.7214,-0.7213,-0.721,0,-0.7729,-0.7673,-0.7634,-0.7594,-0.7562,-0.7523,-0.7497,-0.7458,-0.7427,-0.7395,-0.736,-0.7324,-0.7306,-0.7288,-0.7272,-0.7234,-0.7227,-0.7234,-0.7189,-0.7188,-0.7204,-0.7218,-0.7231,-0.7231,-0.7209,-0.7209,-0.7209,0,-0.7717,-0.7679,-0.7636,-0.7582,-0.7567,-0.7544,-0.75,-0.747,-0.7426,-0.7404,-0.7373,-0.7343,-0.731,-0.7299,-0.7253,-0.7259,-0.7239,-0.7218,-0.7217,-0.7211,-0.7199,-0.7213,-0.7229,-0.7229,-0.7207,-0.7207,-0.7207,0,-0.7745,-0.7682,-0.7649,-0.7628,-0.7563,-0.7548,-0.7521,-0.7476,-0.7452,-0.7413,-0.7397,-0.7355,-0.7332,-0.7301,-0.726,-0.7256,-0.722,-0.7205,-0.7201,-0.7202,-0.7195,-0.7196,-0.7209,-0.7182,-0.7182,-0.7182,-0.7182,0,-0.7745,-0.7721,-0.766,-0.764,-0.7612,-0.7567,-0.7541,-0.751,-0.7471,-0.7444,-0.7408,-0.7383,-0.7331,-0.7301,-0.7269,-0.7237,-0.7227,-0.7209,-0.7201,-0.7212,-0.7215,-0.7198,-0.7197,-0.7182,-0.7182,-0.7182,-0.7182,0,-0.777,-0.7729,-0.769,-0.7633,-0.7618,-0.76,-0.7551,-0.753,-0.7498,-0.7465,-0.7454,-0.7403,-0.7366,-0.7323,-0.7271,-0.7249,-0.722,-0.7208,-0.7236,-0.7231,-0.723,-0.7231,-0.7233,-0.7231,-0.7206,-0.7206,-0.7206,0,-0.7773,-0.7754,-0.7696,-0.7675,-0.7649,-0.7617,-0.7592,-0.7549,-0.7525,-0.7474,-0.746,-0.742,-0.7385,-0.7327,-0.7286,-0.7246,-0.7233,-0.7236,-0.7227,-0.724,-0.7234,-0.7236,-0.7234,-0.7239,-0.724,-0.724,-0.724,0,-0.7784,-0.7765,-0.7731,-0.7691,-0.7663,-0.7629,-0.7593,-0.7579,-0.7528,-0.7504,-0.7465,-0.7439,-0.7387,-0.7348,-0.7304,-0.7276,-0.725,-0.7244,-0.7241,-0.7253,-0.727,-0.7261,-0.7243,-0.7244,-0.7243,-0.7243,-0.7243,-0.7243,-0.7798,-0.7779,-0.7736,-0.77,-0.7669,-0.7638,-0.7616,-0.7582,-0.7549,-0.7504,-0.748,-0.7443,-0.7401,-0.7339,-0.7312,-0.7283,-0.7274,-0.7269,-0.7268,-0.7268,-0.7272,-0.7275,-0.7274,-0.7274,-0.7274,-0.7274,-0.7274,0,-0.7807,-0.7777,-0.7745,-0.7697,-0.767,-0.7649,-0.7609,-0.7588,-0.7555,-0.7519,-0.7486,-0.7444,-0.7406,-0.7363,-0.7323,-0.7308,-0.7295,-0.7299,-0.73,-0.7294,-0.7282,-0.7288,-0.731,-0.731,-0.731,-0.731,-0.731,-0.731,-0.7808,-0.7776,-0.7752,-0.7705,-0.7676,-0.764,-0.7619,-0.759,-0.7561,-0.7515,-0.7484,-0.7457,-0.7418,-0.7375,-0.7341,-0.7329,-0.7316,-0.7324,-0.7309,-0.7298,-0.7295,-0.7292,-0.7298,-0.7321,-0.7321,-0.7323,-0.7323,-0.7323]},{"header":{"parameterUnit":"m.s-1","parameterCategory":1,"la1":30.2991,"la2":30.254,"lo1":-89.0895,"lo2":-89.0444,"dy":0.0017,"dx":0.0017,"nx":28,"ny":28,"refTime":"2025-08-20T03:00:00:Z","depth":0,"parameterNumber":3,"parameterNumberName":"V-component_of_WINDS"},"data":[0,0,0,0,0,0,0,0,0,0,0,0,0,0,0,0,0,0,0,0,0,0,0,0,0,0,0,0,0,0,0,0,0,0,0,0,0,0,0,0,0,0,0,0,0,0,0,0,0,0,0,0,0,0,0,0,0,0,2.2624,2.2624,0,2.2637,2.2637,2.2638,2.2659,2.266,2.266,2.266,2.2671,2.2671,2.2671,0,0,0,0,0,0,0,0,0,0,0,0,0,2.2614,2.2614,2.2624,2.2624,2.2624,2.2637,2.2638,2.2638,2.2659,2.266,2.266,2.2661,2.2671,2.2671,2.2671,0,0,0,0,0,0,0,0,0,0,0,0,0,2.2621,2.2614,2.2624,2.2637,2.2638,2.2637,2.2638,2.2638,2.2659,2.266,2.266,2.2661,2.2671,2.2671,2.2671,2.2659,0,0,2.2671,2.2671,0,0,0,0,0,0,0,0,2.2621,2.2622,2.2635,2.2636,2.2637,2.2647,2.2638,2.2645,2.2659,2.2651,2.266,2.2661,2.2663,2.2663,2.2664,2.2659,2.266,2.2671,2.2671,2.2671,2.2671,0,0,0,0,0,0,0,2.262,2.2621,2.2629,2.2635,2.2636,2.264,2.2642,2.2639,2.2653,2.2652,2.2653,2.2655,2.2664,2.2665,2.2665,2.266,2.2671,2.2671,2.2671,2.2671,2.2642,2.2641,0,0,0,0,0,0,2.2618,2.2621,2.2629,2.263,2.2631,2.264,2.2642,2.2643,2.2653,2.2655,2.2654,2.2656,2.2664,2.2665,2.2665,2.2649,2.2671,2.2671,2.2671,2.2642,2.2642,2.2641,0,0,0,0,0,0,2.2618,2.2619,2.2628,2.2626,2.2627,2.264,2.2641,2.2643,2.2644,2.2655,2.2658,2.2653,2.2665,2.2666,2.266,2.265,2.2671,2.2671,2.2643,2.2642,2.2641,2.2618,0,0,0,0,0,0,2.2618,2.2619,2.2615,2.2625,2.2627,2.2623,2.264,2.2643,2.2644,2.2646,2.2655,2.2656,2.2665,2.266,2.266,2.265,2.267,2.2644,2.2643,2.2642,2.262,2.2617,2.2614,0,0,0,0,0,2.2617,2.2608,2.2615,2.2616,2.2623,2.2623,2.2624,2.2635,2.2644,2.2639,2.2646,2.2656,2.2651,2.2659,2.2659,2.265,2.2645,2.2643,2.2642,2.2621,2.2617,2.2614,0,0,0,0,0,0,2.2596,2.261,2.2617,2.2612,2.2616,2.2627,2.2622,2.2631,2.2632,2.2634,2.2647,2.2649,2.264,2.2645,2.2653,2.2636,2.2649,2.2648,2.2634,2.263,2.2627,2.2626,2.267,0,0,0,0,0,2.2591,2.2591,2.2602,2.2596,2.2598,2.2609,2.261,2.2618,2.2622,2.2624,2.263,2.2634,2.2633,2.2632,2.2632,2.2621,2.2622,2.2614,2.2611,2.2608,2.2606,2.2599,2.2595,2.2636,2.2636,2.2636,0,0,2.258,2.2587,2.2586,2.2592,2.2596,2.2594,2.2611,2.2608,2.2606,2.2624,2.2618,2.2623,2.2627,2.2618,2.2614,2.2621,2.2595,2.2606,2.2604,2.2604,2.2597,2.2593,2.2589,2.2635,2.2635,2.2635,0,0,2.2558,2.2565,2.2559,2.2563,2.2569,2.2577,2.2575,2.2584,2.2588,2.2583,2.2595,2.2592,2.2591,2.2593,2.2594,2.2571,2.258,2.257,2.2554,2.2546,2.2543,2.254,2.253,2.2526,2.2569,2.2568,2.2568,0,2.2543,2.2542,2.2555,2.2551,2.2552,2.2568,2.2561,2.2564,2.257,2.2569,2.2577,2.2574,2.2579,2.2569,2.2563,2.2564,2.2561,2.2569,2.2542,2.254,2.2537,2.2528,2.2524,2.2567,2.2567,2.2567,2.2568,0,2.2522,2.2521,2.2515,2.2521,2.2521,2.2516,2.2527,2.2525,2.2533,2.2539,2.2532,2.2537,2.2538,2.2536,2.2544,2.2527,2.2531,2.254,2.2553,2.2532,2.2523,2.252,2.2565,2.2566,2.2566,2.2567,0,0,2.2489,2.25,2.2497,2.2499,2.2506,2.2505,2.2499,2.25,2.2498,2.2501,2.2495,2.2493,2.2501,2.2502,2.2509,2.2503,2.2481,2.2513,2.2513,2.2505,2.2461,2.2453,2.2449,2.2488,2.2487,2.2487,2.246,0,2.2468,2.246,2.247,2.246,2.2457,2.2471,2.2466,2.2469,2.2474,2.2472,2.2477,2.2474,2.2486,2.2487,2.2481,2.2485,2.2473,2.2488,2.2481,2.2481,2.2478,2.2444,2.2436,2.2411,2.2457,2.2456,2.2456,0,2.2442,2.2444,2.2433,2.2439,2.2438,2.2434,2.2434,2.2432,2.2435,2.2439,2.2439,2.2448,2.2441,2.2454,2.2444,2.2454,2.2452,2.2453,2.2453,2.2452,2.2466,2.2441,2.2403,2.2399,2.2451,2.2451,2.2452,0,2.2417,2.2416,2.2409,2.241,2.2417,2.2413,2.2416,2.242,2.2418,2.2418,2.2417,2.2416,2.2415,2.2413,2.2421,2.243,2.2409,2.2423,2.241,2.241,2.2405,2.2405,2.2365,2.2405,2.2405,2.2405,2.2405,0,2.2391,2.2384,2.2397,2.2393,2.2384,2.2395,2.2385,2.2389,2.2392,2.2387,2.2399,2.2394,2.2405,2.24,2.2406,2.2396,2.2395,2.2397,2.2398,2.2395,2.2395,2.2393,2.2395,2.2404,2.2405,2.2405,2.2405,0,2.2361,2.237,2.2363,2.237,2.2371,2.2364,2.237,2.2365,2.237,2.2364,2.2363,2.2371,2.2366,2.2374,2.237,2.2373,2.2358,2.2363,2.2357,2.2358,2.2344,2.2344,2.2301,2.2295,2.234,2.234,2.2339,0,2.2344,2.2338,2.2345,2.2342,2.2345,2.2341,2.234,2.235,2.2348,2.235,2.2344,2.234,2.2338,2.2329,2.2333,2.233,2.2334,2.2318,2.2333,2.2329,2.2331,2.2331,2.2329,2.2315,2.2315,2.2314,2.2314,0,2.2312,2.2316,2.2315,2.2314,2.2312,2.2311,2.2312,2.2309,2.232,2.2316,2.2312,2.231,2.2305,2.23,2.2298,2.2299,2.2307,2.2309,2.2306,2.2302,2.2298,2.2298,2.2347,2.231,2.231,2.2311,2.2311,2.2311,2.2287,2.2282,2.2285,2.2282,2.2283,2.2282,2.2278,2.2282,2.2279,2.2276,2.2282,2.2275,2.2276,2.2273,2.2273,2.2267,2.2273,2.2269,2.2267,2.2265,2.2262,2.23,2.2267,2.2267,2.2267,2.2267,2.2267,0,2.2254,2.2256,2.2253,2.2253,2.225,2.2259,2.2259,2.2256,2.225,2.225,2.2247,2.2241,2.2236,2.2239,2.2235,2.2229,2.2232,2.2227,2.2227,2.2226,2.2258,2.2261,2.2224,2.2224,2.2224,2.2224,2.2224,2.2224,2.2237,2.2228,2.2232,2.2222,2.2224,2.2218,2.2217,2.2216,2.2216,2.2208,2.2204,2.2207,2.2208,2.2203,2.2198,2.2199,2.2196,2.2189,2.2191,2.222,2.2225,2.2229,2.2231,2.2189,2.2189,2.216,2.216,2.216]}]]